Date String (YYYY-MM-DD hh:mm:ss) UTC,Instrument flags,Ambient pressure (hPa),Sample flow (lpm),Bypass flow (lpm),Sample temperature (°C),Ambient temperature (°C),ASC tube jacket temperature (°C),LED temperature (°C),Box temperature (°C),Sample RH (%),Span deviation,Mass concentration (μg/m³),Mass concentration (μg/m³),Mass concentration (μg/m³)
DateTimeUTC,F1_M11,P_M11,Q1_M11,Q2_M11,T1_M11,T2_M11,T3_M11,T4_M11,T5_M11,U1_M11,ZSPAN_M11,X0_M11,X2_M11,X1_M11
2022-04-16 12:00:00,,0826.8,4.99,0.00,23.5,22.5,00.0,32.5,25.3,13.1,0000.0,0012.32,0005.09,0004.02
2022-04-16 12:01:00,,0826.8,5.00,0.00,23.5,22.5,00.0,32.5,25.3,13.1,0000.0,0012.28,0005.05,0004.02
2022-04-16 12:02:00,,0826.8,5.02,0.00,23.5,22.5,00.0,32.5,25.2,13.1,0000.0,0011.77,0004.95,0004.02
2022-04-16 12:03:00,,0827.0,5.00,0.00,23.5,22.5,00.0,32.5,25.2,13.1,0000.0,0011.64,0004.90,0004.02
2022-04-16 12:04:00,,0826.9,4.99,0.00,23.5,22.5,00.0,32.4,25.2,13.1,0000.0,0011.28,0004.91,0004.03
2022-04-16 12:05:00,,0827.0,5.00,0.00,23.5,22.5,00.0,32.4,25.2,13.1,0000.0,0010.52,0004.90,0004.04
2022-04-16 12:06:00,,0827.0,5.00,0.00,23.4,22.5,00.0,32.4,25.2,13.1,0000.0,0010.52,0004.89,0004.06
2022-04-16 12:07:00,,0826.9,5.00,0.00,23.4,22.4,00.0,32.4,25.2,13.1,0000.0,0010.54,0004.95,0004.07
2022-04-16 12:08:00,,0826.9,5.00,0.00,23.4,22.4,00.0,32.4,25.2,13.1,0000.0,0010.15,0004.95,0004.08
2022-04-16 12:09:00,,0827.0,5.00,0.00,23.4,22.4,00.0,32.4,25.1,13.0,0000.0,0010.59,0005.00,0004.09
2022-04-16 12:10:00,,0826.9,5.00,0.00,23.4,22.4,00.0,32.4,25.1,13.0,0000.0,0010.26,0004.98,0004.10
2022-04-16 12:11:00,,0826.9,5.01,0.00,23.4,22.4,00.0,32.4,25.1,13.0,0000.0,0009.62,0004.96,0004.11
2022-04-16 12:12:00,,0826.9,5.00,0.00,23.3,22.3,00.0,32.4,25.1,13.0,0000.0,0009.37,0004.96,0004.11
2022-04-16 12:13:00,,0826.9,5.00,0.00,23.3,22.3,00.0,32.3,25.1,12.9,0000.0,0009.81,0005.04,0004.11
2022-04-16 12:14:00,,0827.0,5.00,0.00,23.3,22.3,00.0,32.3,25.1,12.9,0000.0,0010.15,0005.10,0004.11
2022-04-16 12:15:00,,0826.9,5.01,0.00,23.3,22.2,00.0,32.3,25.0,12.8,0000.0,0010.20,0005.09,0004.09
2022-04-16 12:16:00,,0826.9,5.00,0.00,23.3,22.2,00.0,32.3,25.0,12.7,0000.0,0010.42,0005.10,0004.06
2022-04-16 12:17:00,,0826.9,5.00,0.00,23.3,22.2,00.0,32.3,25.0,12.5,0000.0,0010.91,0005.09,0004.03
2022-04-16 12:18:00,,0826.9,4.98,0.00,23.2,22.2,00.0,32.3,25.0,12.4,0000.0,0011.11,0005.05,0004.00
2022-04-16 12:19:00,,0827.0,5.00,0.00,23.2,22.2,00.0,32.3,25.0,12.3,0000.0,0011.18,0005.03,0003.97
2022-04-16 12:20:00,,0826.9,5.00,0.00,23.2,22.2,00.0,32.2,25.0,12.3,0000.0,0011.04,0005.03,0003.94
2022-04-16 12:21:00,,0827.0,5.00,0.00,23.2,22.2,00.0,32.2,25.0,12.2,0000.0,0011.53,0005.04,0003.91
2022-04-16 12:22:00,,0827.0,5.01,0.00,23.2,22.2,00.0,32.2,25.0,12.1,0000.0,0012.01,0005.06,0003.88
2022-04-16 12:23:00,,0826.9,5.00,0.00,23.2,22.2,00.0,32.2,24.9,12.0,0000.0,0012.21,0005.04,0003.85
2022-04-16 12:24:00,,0827.0,4.99,0.00,23.2,22.1,00.0,32.2,24.9,12.0,0000.0,0012.77,0005.02,0003.82
2022-04-16 12:25:00,,0827.0,5.00,0.00,23.2,22.2,00.0,32.2,24.9,12.0,0000.0,0013.45,0004.99,0003.79
2022-04-16 12:26:00,,0827.0,4.99,0.00,23.2,22.2,00.0,32.2,24.9,11.9,0000.0,0014.50,0004.99,0003.77
2022-04-16 12:27:00,,0827.0,4.99,0.00,23.1,22.1,00.0,32.1,24.9,11.9,0000.0,0016.22,0004.97,0003.75
2022-04-16 12:28:00,,0827.0,5.01,0.00,23.1,22.1,00.0,32.1,24.9,11.9,0000.0,0016.67,0004.99,0003.74
2022-04-16 12:29:00,,0827.1,5.00,0.00,23.1,22.1,00.0,32.1,24.9,11.9,0000.0,0016.26,0004.95,0003.72
2022-04-16 12:30:00,,0827.1,5.01,0.00,23.1,22.1,00.0,32.1,24.9,11.9,0000.0,0016.60,0004.96,0003.73
2022-04-16 12:31:00,,0827.1,5.01,0.00,23.1,22.1,00.0,32.1,24.9,11.9,0000.0,0017.32,0004.92,0003.72
2022-04-16 12:32:00,,0827.1,5.00,0.00,23.1,22.1,00.0,32.1,24.9,11.9,0000.0,0017.08,0004.88,0003.72
2022-04-16 12:33:00,,0827.2,4.98,0.00,23.1,22.1,00.0,32.1,24.9,11.9,0000.0,0016.56,0004.86,0003.72
2022-04-16 12:34:00,,0827.2,5.00,0.00,23.1,22.1,00.0,32.1,24.9,11.9,0000.0,0017.29,0004.88,0003.72
2022-04-16 12:35:00,,0827.2,5.01,0.00,23.1,22.1,00.0,32.1,24.9,11.9,0000.0,0016.54,0004.87,0003.73
2022-04-16 12:36:00,,0827.1,5.00,0.00,23.1,22.1,00.0,32.0,24.9,11.9,0000.0,0015.79,0004.83,0003.73
2022-04-16 12:37:00,,0827.2,5.00,0.00,23.1,22.1,00.0,32.0,24.9,11.8,0000.0,0015.60,0004.86,0003.72
2022-04-16 12:38:00,,0827.6,5.00,0.00,23.1,22.1,00.0,32.0,24.9,11.8,0000.0,0014.04,0004.85,0003.71
2022-04-16 12:39:00,,0827.5,5.00,0.00,23.0,22.1,00.0,32.0,24.8,11.8,0000.0,0013.72,0004.79,0003.71
2022-04-16 12:40:00,,0827.6,5.00,0.00,23.0,22.1,00.0,32.0,24.8,11.8,0000.0,0014.95,0004.82,0003.71
2022-04-16 12:41:00,,0827.6,5.00,0.00,23.0,22.0,00.0,32.0,24.8,11.8,0000.0,0015.99,0004.82,0003.70
2022-04-16 12:42:00,,0827.6,5.00,0.00,23.0,22.0,00.0,32.0,24.8,11.8,0000.0,0015.39,0004.80,0003.69
2022-04-16 12:43:00,,0827.7,4.98,0.00,23.0,22.0,00.0,32.0,24.8,11.8,0000.0,0015.76,0004.83,0003.69
2022-04-16 12:44:00,,0827.6,5.01,0.00,23.0,22.0,00.0,32.0,24.8,11.8,0000.0,0017.29,0004.91,0003.68
2022-04-16 12:45:00,,0827.3,4.99,0.00,23.0,22.0,00.0,32.0,24.8,11.8,0000.0,0017.29,0004.90,0003.67
2022-04-16 12:46:00,,0827.3,5.00,0.00,23.0,22.0,00.0,32.0,24.8,11.8,0000.0,0016.91,0004.84,0003.66
2022-04-16 12:47:00,,0827.3,5.00,0.00,22.9,22.0,00.0,31.9,24.8,11.8,0000.0,0016.81,0004.83,0003.66
2022-04-16 12:48:00,,0827.4,5.00,0.00,22.9,22.0,00.0,31.9,24.8,11.9,0000.0,0016.22,0004.79,0003.66
2022-04-16 12:49:00,,0827.4,5.00,0.00,22.9,22.0,00.0,31.9,24.7,11.9,0000.0,0016.12,0004.80,0003.66
2022-04-16 12:50:00,,0827.4,5.01,0.00,22.9,22.0,00.0,31.9,24.7,11.9,0000.0,0015.64,0004.87,0003.69
2022-04-16 12:51:00,,0827.4,5.00,0.00,22.9,22.0,00.0,31.9,24.7,11.9,0000.0,0014.80,0004.88,0003.70
2022-04-16 12:52:00,,0827.4,5.00,0.00,22.9,22.0,00.0,31.9,24.7,12.0,0000.0,0014.41,0004.89,0003.70
2022-04-16 12:53:00,,0827.4,4.98,0.00,22.9,21.9,00.0,31.9,24.7,12.0,0000.0,0014.34,0004.89,0003.71
2022-04-16 12:54:00,,0827.4,5.01,0.00,22.9,21.9,00.0,31.9,24.7,12.0,0000.0,0014.44,0004.89,0003.71
2022-04-16 12:55:00,,0827.4,5.00,0.00,22.9,22.0,00.0,31.9,24.7,12.1,0000.0,0013.50,0004.79,0003.71
2022-04-16 12:56:00,,0827.5,5.00,0.00,22.9,21.9,00.0,31.9,24.7,12.1,0000.0,0013.55,0004.75,0003.72
2022-04-16 12:57:00,,0827.5,5.00,0.00,22.9,21.9,00.0,31.9,24.7,12.1,0000.0,0013.55,0004.78,0003.72
2022-04-16 12:58:00,,0827.5,4.99,0.00,22.9,21.9,00.0,31.8,24.7,12.1,0000.0,0014.19,0004.81,0003.72
2022-04-16 12:59:00,,0827.4,4.99,0.00,22.9,21.9,00.0,31.8,24.7,12.2,0000.0,0014.37,0004.81,0003.72
